Location: *
(47.2969°N, 10.2930°E)
Time: 23:31:34
(UTC+00:00)

GRACE-FO 2 - Pass Details

Date: 09 April 2020
Orbit: 483 x 504 km, 89.0° (Epoch: 30 May)

Event Time Altitude Azimuth Distance (km) Brightness Sun altitude
Exits shadow 19:52:26 37° 171° (S) 802 5.3 -18.2°
Maximum altitude 19:53:50 81° 88° (E) 513 4.5 -18.4°
Drops below altitude 10° 19:57:34 10° 1° (N) 1,713 7.8 -18.9°
Sets 19:59:40 0° 1° (N) 2,598 8.8 -19.2°
